Retour au catalogue

STARLINK-37535

ActifCommunicationsVLEO
NORAD 69465·PAYLOAD·🇺🇸 United States

Lancé Jun 8, 2026 depuis Cape Canaveral Space Force Station

Loading…

Prochains Passages (prochaines 24 heures)

TLE

FraisSource: CelesTrak SupGP

Époque: Sep 15, 2026, 03:54 UTC

1 69465C 26127Y   26258.16298611 -.00027193  00000+0 -80345-3 0  2589
2 69465  53.1570 190.7790 0001321  83.3999 183.3008 15.34403585    16

Suivez STARLINK-37535 en temps réel avec AllMySat

Download on the App Store